ZHONGXING-6D

Last updated on Mon Jun 22 2026 00:03:07 GMT+0000 (Coordinated Universal Time)

1 52255U 22038A 26171.90542134 .00000000 00000+0 00000+0 0 9997 2 52255 0.0102 344.3774 0000421 120.1595 255.4678 1.00268056 15467
UTC large
Height (km)
Speed (km/s)
/
Latitude / Longitude
Inclination (degrees)
Orbital Period (minutes)
Azimuth
Elevation
Range (km)
Doppler Factor

Next 0 passes for location: London (51.5072 / 0.1276)

No passes found over London.
ZHONGXING-6D